Regional Weather Roundup
Issued by NWS

Home | Current Version | Previous Version | Text Only | Print | Product List | Glossary On
Versions: 1 2 3 4 5 6 7 8 9 10 11 12 13 14 15 16 17 18 19 20 21 22 23 24 25 26 27 28 29 30 31 32 33 34 35 36 37 38 39 40 41 42 43 44 45 46 47 48 49 50
000
ASUS43 KDMX 041107
RWRIA

WEATHER ROUNDUP FOR IOWA
NATIONAL WEATHER SERVICE DES MOINES IA
600 AM CDT TUE AUG 04 2015

NOTE: "FAIR" INDICATES FEW OR NO CLOUDS BELOW 12,000 FEET WITH NO
SIGNIFICANT WEATHER AND/OR OBSTRUCTIONS TO VISIBILITY.

* - THESE STATIONS ARE NOT NWS STATIONS...THUS NOT UNDER NWS
QUALITY CONTROL.  THEY ALSO DO NOT REPORT WEATHER SUCH
AS PRECIPITATION OR FOG.

IAZ001>003-012>014-020>022-031>034-043>046-041200-
   NORTHWEST IOWA

CITY           SKY/WX    TMP DP  RH WIND       PRES   REMARKS
CARROLL *      CLOUDY    63  63 100 CALM      29.99R
CHEROKEE *     CLOUDY    61  61 100 CALM      30.00R
DENISON *      CLOUDY    64  63  94 CALM      29.98R
LE MARS *      CLOUDY    61  59  94 N3        30.01R
ORANGE CITY *  PTCLDY    63  57  82 E3        30.01R
SHELDON *      PTCLDY    55  55 100 E3        30.00R
SIOUX CITY     CLOUDY    67  61  81 CALM      29.99R
SPENCER        MOCLDY    56  52  86 CALM      30.01R
STORM LAKE *   PTCLDY    61  59  94 CALM      30.01R
$$

IAZ055>058-069>071-079>083-090>094-041200-
   SOUTHWEST IOWA

CITY           SKY/WX    TMP DP  RH WIND       PRES   REMARKS
ATLANTIC *     MOCLDY    64  63  94 CALM      29.98R
AUDUBON *      CLEAR     64  61  88 CALM      30.00R
CLARINDA *     MOCLDY    68  64  88 CALM      29.97S
COUNCIL BLFS *   N/A     66  63  88 N9        29.99R
CRESTON *      MOCLDY    64  61  88 E8        29.99S
HARLAN  *      CLOUDY    64  64 100 CALM      30.03R
LAMONI         CLOUDY    67  63  87 CALM      29.97F
RED OAK *      MOCLDY    68  63  83 CALM      29.97R
SHENANDOAH *   CLOUDY    68  64  88 CALM      29.97R
$$

IAZ047>049-059>061-072>074-084-041200-
   CENTRAL IOWA

CITY           SKY/WX    TMP DP  RH WIND       PRES   REMARKS
AMES           MOCLDY    59  58  96 CALM      30.00R
ANKENY *       PTCLDY    63  63 100 CALM      29.99R
CHARITON *     PTCLDY    64  61  88 SE3       29.99S
DES MOINES     MOCLDY    67  60  78 S5        29.98R
GRINNELL*      PTCLDY    61  57  88 CALM      30.00R
KNOXVILLE *    CLEAR     64  57  77 S6        29.98R
MARSHALLTOWN   CLEAR     57  56  96 CALM      29.99R
PELLA *        PTCLDY    63  63 100 CALM      30.00R
PERRY *          N/A     63  61  94 NE3       29.99S
$$

IAZ004>006-015-016-023>025-035-036-041200-
   NORTH CENTRAL IOWA

CITY           SKY/WX    TMP DP  RH WIND       PRES   REMARKS
ALGONA *       CLEAR     55  54  94 CALM      30.01R
CLARION *      CLEAR     54  54 100 N3        30.00R
ESTHERVILLE    PTCLDY    52  50  93 NW3       30.01R
FORT DODGE *   MOCLDY    57  54  88 CALM      30.01R
MASON CITY     CLEAR     56  52  86 NW5       30.01R
FOREST CITY *  CLEAR     50  50 100 CALM      30.00R
IOWA FALLS *     N/A     55  54  94 CALM      30.01R
$$

IAZ007>011-017>019-026>030-037>042-050>054-066-041200-
   NORTHEAST IOWA

CITY           SKY/WX    TMP DP  RH WIND       PRES   REMARKS
CEDAR RAPIDS   CLEAR     56  56 100 CALM      29.99R
CHARLES CITY * CLEAR     54  54 100 CALM      29.99R
CLINTON *      CLEAR     54  52  94 W5        30.00R
DECORAH *      CLEAR     54  52  94 CALM      29.97R
DUBUQUE        CLEAR     54  51  90 SW5       29.97R
MONTICELLO *   CLEAR     52  50  93 CALM      29.98R
OELWEIN *      CLEAR     54  52  94 SW5       29.99
WATERLOO       PTCLDY    55  53  93 CALM      29.98R
$$

IAZ064-065-067-068-078-041200-
   EAST CENTRAL IOWA

CITY           SKY/WX    TMP DP  RH WIND       PRES   REMARKS
DAVENPORT      CLEAR     56  54  93 W5        29.98R
IOWA CITY      CLEAR     59  56  89 CALM      30.00R
MT. PLEASANT * PTCLDY    63  59  88 CALM      30.00R
MUSCATINE *    CLEAR     57  55  94 CALM      29.99R
QUAD CITIES    CLEAR     59  55  87 SW3       29.98R
$$

IAZ062-063-075>077-085>089-095>099-041200-
   SOUTHEAST IOWA

CITY           SKY/WX    TMP DP  RH WIND       PRES   REMARKS
BURLINGTON     MOCLDY    62  60  93 W3        29.98R
FAIRFIELD *    MOCLDY    63  59  88 CALM      29.99R
FORT MADISON * PTCLDY    63  59  88 CALM      30.00R
KEOKUK *       CLEAR     64  63  94 CALM      29.98R
OSKALOOSA *      N/A     61  59  94 CALM      30.00R
CENTERVILLE *  PTCLDY    63  59  88 CALM      30.01R
OTTUMWA        PTCLDY    62  62 100 CALM      29.98R
WASHINGTON *   PTCLDY    59  57  94 CALM      30.00R
$$

ABBREVIATIONS USED IN REMARKS
   TC - TEMPERATURES IN CELSIUS
  WCI - WIND CHILL INDEX
   HX - HEAT INDEX
  VSB - VISIBILITY
$$




USA.gov is the U.S. government's official web portal to all federal, state and local government web resources and services.